Powrót do katalogu

STARLINK-31757

AktywnyŁącznośćVLEO
NORAD 59427·PAYLOAD·🇺🇸 United States

Wystrzelony Apr 7, 2024 z Vandenberg Space Force Base

Loading…

Następne Przeloty (najbliższe 24 godziny)

TLE

ŚwieżeSource: CelesTrak SupGP

Epoka: Sep 14, 2026, 22:41 UTC

1 59427C 24065G   26257.94562500 -.00034482  00000+0 -10188-2 0  2576
2 59427  53.1568 119.4063 0001293  81.2795 168.8761 15.34407238    13

Śledź STARLINK-31757 w czasie rzeczywistym z AllMySat

Download on the App Store